TimeEST,TemperatureF,Dew PointF,Humidity,Sea Level PressureIn,VisibilityMPH,Wind Direction,Wind SpeedMPH,Gust SpeedMPH,PrecipitationIn,Events,Conditions,WindDirDegrees,DateUTC
12:53 AM,34.0,32.0,92,30.37,10.0,Calm,Calm,-,N/A,,Clear,0,2012-11-30 05:53:00
1:53 AM,34.0,32.0,92,30.36,10.0,Calm,Calm,-,N/A,,Partly Cloudy,0,2012-11-30 06:53:00
2:53 AM,32.0,30.0,92,30.38,10.0,Calm,Calm,-,N/A,,Scattered Clouds,0,2012-11-30 07:53:00
3:53 AM,32.0,30.9,96,30.37,10.0,Calm,Calm,-,N/A,,Scattered Clouds,0,2012-11-30 08:53:00
4:53 AM,30.9,30.0,96,30.35,10.0,Calm,Calm,-,N/A,,Scattered Clouds,0,2012-11-30 09:53:00
5:53 AM,32.0,30.0,92,30.36,10.0,Calm,Calm,-,N/A,,Scattered Clouds,0,2012-11-30 10:53:00
6:42 AM,32.0,30.2,93,30.36,10.0,WNW,3.5,-,N/A,,Mostly Cloudy,290,2012-11-30 11:42:00
6:53 AM,32.0,30.9,96,30.38,8.0,Calm,Calm,-,N/A,,Mostly Cloudy,0,2012-11-30 11:53:00
7:53 AM,35.1,33.1,92,30.38,10.0,Calm,Calm,-,N/A,,Mostly Cloudy,0,2012-11-30 12:53:00
8:53 AM,37.9,35.1,89,30.39,10.0,Calm,Calm,-,N/A,,Mostly Cloudy,0,2012-11-30 13:53:00
9:53 AM,41.0,36.0,82,30.40,10.0,Calm,Calm,-,N/A,,Overcast,0,2012-11-30 14:53:00
10:53 AM,45.0,37.9,76,30.39,10.0,Calm,Calm,-,N/A,,Overcast,0,2012-11-30 15:53:00
11:53 AM,50.0,37.9,63,30.37,10.0,Calm,Calm,-,N/A,,Mostly Cloudy,0,2012-11-30 16:53:00
12:53 PM,55.9,43.0,62,30.32,10.0,SSW,3.5,-,N/A,,Scattered Clouds,210,2012-11-30 17:53:00
1:53 PM,60.1,46.0,60,30.30,10.0,SW,3.5,-,N/A,,Scattered Clouds,230,2012-11-30 18:53:00
2:53 PM,62.1,46.9,58,30.26,10.0,SSW,10.4,-,N/A,,Scattered Clouds,200,2012-11-30 19:53:00
3:53 PM,63.0,46.9,56,30.25,10.0,Variable,6.9,-,N/A,,Scattered Clouds,0,2012-11-30 20:53:00
4:53 PM,61.0,46.9,60,30.26,10.0,South,5.8,-,N/A,,Scattered Clouds,170,2012-11-30 21:53:00
5:53 PM,59.0,48.0,67,30.26,10.0,South,4.6,-,N/A,,Scattered Clouds,170,2012-11-30 22:53:00
6:53 PM,54.0,48.0,80,30.27,10.0,Calm,Calm,-,N/A,,Scattered Clouds,0,2012-11-30 23:53:00
7:53 PM,48.9,46.0,90,30.29,10.0,Calm,Calm,-,N/A,,Scattered Clouds,0,2012-12-01 00:53:00
8:53 PM,48.0,45.0,89,30.29,10.0,Calm,Calm,-,N/A,,Scattered Clouds,0,2012-12-01 01:53:00
9:53 PM,45.0,43.0,93,30.30,7.0,Calm,Calm,-,N/A,,Scattered Clouds,0,2012-12-01 02:53:00
10:53 PM,46.0,44.1,93,30.30,7.0,Calm,Calm,-,N/A,,Mostly Cloudy,0,2012-12-01 03:53:00
11:53 PM,44.1,43.0,96,30.30,10.0,Calm,Calm,-,N/A,,Mostly Cloudy,0,2012-12-01 04:53:00